COSMOS 1275 DEB, 18902

Orbit data source: Space-Track

COSMOS 1275 DEB, 18902 is space debris in LEO originally from a launch on Thu, 04 Jun 1981 UTC launched from the Plesetsk Missile And Space Complex (PKMTR). Debris objects in space refer to the collection of defunct objects orbiting the Earth. Examples of debris include non-operational satellites, rocket bodies, and fragments generated from explosions, collisions, or faulty payload assembly.

Loading next visibility...
Identifier
18902, 1981-053MB
Orbit
LEO
Country
Flag of CISCIS
Related business
Manufacturer
Unknown
Mission
Spacecraft
Bus & Motor
Unknown
Mass
Unknown
Launch date (UTC)
1981-06-04 (45 years ago)
Launch vehicle
Unknown
Launch site
Plesetsk Missile And Space Complex (PKMTR)
Object type
Payload
Rocket body
Debris
Shape & HBR
Unknown shape, 0.1 m
Radar Cross Section
Small (<0.1 m²)

Expand to show TLE details & history
Last TLE update: 23 hours ago

TLE from 23 hours ago
0 COSMOS 1275 DEB
1 18902U 81053MB  25340.33088503  .00013652  00000-0  32783-2 0  9993
2 18902  82.9441 103.7254 0011252 132.9292 227.2854 14.53286734637257
Epoch: 2025-12-06T07:56Z
TLE epoch observation values (Epoch: 2025-12-06T07:56:28.466Z)
Latitude
0.00001°
Longitude
-90.75337°
Altitude
723.363 km
Speed
7.491 km/s
True Right ascension
06h 54m 54s
True Declination
0° 00' 00"
Sunlit
Object was in full shadow at epoch
Visualization orbit readout
Latitude
Unknown
Longitude
Unknown
Altitude
Unknown
Speed
Unknown
Apparent Right ascension
Unknown
Apparent Declination
Unknown
Sunlit
N/A
Visualization observer readout
Local Sidereal Time
05:22:06
Azimuth
Unknown
Elevation
Unknown
Doppler factor
Unknown
Orbital elements
Apogee altitude
719.953 km
Perigee altitude
703.997 km
Semi-major axis
7,090.112 km
Eccentricity
0.00113
Inclination
82.9441°
RAAN
103.7254°
Arg. of periapsis
132.9292°
True anomaly
227.19075°
Mean anomaly
227.2854°
Eccentric anomaly
227.23807°
Mean motion
3.63549 °/min
Orbital period
99.02 mins
BSTAR
0.0032783
Loading maneuver chart data...
Computing Atmospheric mass density...
Loading historical data...
Loading historical data...
Loading historical data...
Loading historical data...
Loading historical data...
Loading historical data...
Loading historical data...

Documentation

Showing up to 5 results
|